Погода в Старом Курдыме

Россия / Республика Башкортостан     56°14′59″N   55°29′22″E
темп.,
°C
ветер,
м/с
пор.,
м/с
влажн.,
%
обл.,
%
осадки,
мм/ч
давл.,
гПа
погр.,
м
28 февраля, вс
вс2823:00−13в61094100 1.4 1003308
02:00−13в599498 0.3 1002260
05:00−13всв599498 0.4 1003278
08:00−14всв599599 0.3 1003304
11:00−12св699297 0.4 1003394
14:00−9св5791100 0.2 1004494
17:00−8ссв5891100 0.3 1005569
20:00−11ссв599491 0.1 1008262
1 марта, пн
пн123:00−13св489486 0.2 1010254
02:00−14св479589 0.1 1011239
05:00−15ссв479592 0.2 1013230
08:00−17ссв379689 0.1 1014151
11:00−15ссв459285 0.1 1016346
14:00−12ссв2385100 0.1 1016489
17:00−11сз2388100 0.1 1018455
20:00−15з2397100 0.1 101723
2 марта, вт
вт223:00−18зюз349994 0.1 101840
02:00−21юз4510093 0.0 101684
05:00−21ююз5109996 0.1 1014218
08:00−20ю71295100 0.0 1011283
11:00−17ю81396100 0.3 1008354
14:00−14ю81393100 0.6 1005523
17:00−10ююз81293100 1.0 1002617
20:00−10ю71394100 0.7 1001526
3 марта, ср
ср323:00−9ю71494100 1.5 999459
02:00−7ю71194100 0.7 998330
05:00−5ююз5996100 1.1 998257
08:00−4зсз5895100 0.3 998360
11:00−5з369593 0.4 999301
14:00−4зюз5795100 0.3 999401
17:00−3з5790100 0.4 1000735
20:00−6зсз5993100 0.3 1001445
4 марта, чт
чт423:00−9з4896100 0.3 1003175
02:00−12з469888 0.0 100399
05:00−14з349889 0.1 100469
08:00−12зюз489696 0.2 1005199
11:00−10юз479597 0.3 1004279
14:00−7юз6992100 0.1 1003549
17:00−6ююз71193100 0.3 1001661
20:00−5ююз81494100 0.9 998805